DW8374 Weather Reports


Display with metric or nautical units.
time (UTC)temp
F
wind
direction
speed
MPH
gust
MPH
rain 1hr
in
rain 24hr
in
rain mn
in
humidity
%
barometer
mb
20260506231529 70 360 9.0 0.0 0.00 0.00 0.00 44 1009.7
20260506230026 70 360 12.0 0.0 0.00 0.00 0.00 43 1009.8
20260506224526 71 360 12.0 0.0 0.00 0.00 0.00 43 1009.7
20260506223025 71 219 9.0 0.0 0.00 0.00 0.00 44 1009.7
20260506221525 72 360 10.0 0.0 0.00 0.00 0.00 43 1009.8
20260506220025 72 360 13.0 0.0 0.00 0.00 0.00 42 1009.7
20260506214523 73 360 14.0 0.0 0.00 0.00 0.00 42 1009.8
20260506213022 74 360 13.0 0.0 0.00 0.00 0.00 42 1009.6
20260506211523 74 360 13.0 0.0 0.00 0.00 0.00 41 1009.4
20260506210023 74 360 12.0 0.0 0.00 0.00 0.00 42 1009.5
20260506204521 74 32 13.0 0.0 0.00 0.00 0.00 41 1009.4
20260506203027 75 360 13.0 0.0 0.00 0.00 0.00 42 1009.3
20260506201520 76 360 12.0 0.0 0.00 0.00 0.00 41 1009.2
20260506200018 75 360 11.0 0.0 0.00 0.00 0.00 40 1009.1
20260506194517 76 319 13.0 0.0 0.00 0.00 0.00 41 1009.1
20260506193016 76 360 14.0 0.0 0.00 0.00 0.00 40 1009.3
20260506191515 76 360 17.0 0.0 0.00 0.00 0.00 35 1008.9
20260506190014 76 48 16.0 0.0 0.00 0.00 0.00 36 1008.8
20260506184513 75 360 14.0 0.0 0.00 0.00 0.00 35 1008.8
20260506183012 75 360 13.0 0.0 0.00 0.00 0.00 38 1008.9
20260506181510 75 360 11.0 0.0 0.00 0.00 0.00 38 1009.3
20260506180015 74 360 12.0 0.0 0.00 0.00 0.00 39 1009.2
20260506174507 74 360 7.0 0.0 0.00 0.00 0.00 41 1009.3
20260506173003 73 360 7.0 0.0 0.00 0.00 0.00 43 1009.4
20260506171605 71 360 8.0 0.0 0.00 0.00 0.00 46 1009.4
20260506170107 70 360 8.0 0.0 0.00 0.00 0.00 47 1009.6
20260506164600 69 267 8.0 0.0 0.00 0.00 0.00 49 1009.7
20260506163103 68 360 7.0 0.0 0.00 0.00 0.00 49 1009.7
20260506161556 67 345 10.0 0.0 0.00 0.00 0.00 50 1009.7
20260506160047 66 360 9.0 0.0 0.00 0.00 0.00 52 1009.8
20260506154556 65 26 10.0 0.0 0.00 0.00 0.00 53 1010.0
20260506153038 64 360 10.0 0.0 0.00 0.00 0.00 54 1010.2
20260506151538 63 360 8.0 0.0 0.00 0.00 0.00 56 1010.1
20260506150035 62 360 7.0 0.0 0.00 0.00 0.00 58 1010.1
20260506144537 61 360 6.0 0.0 0.00 0.00 0.00 60 1010.1
20260506143034 60 360 6.0 0.0 0.00 0.00 0.00 62 1010.1
20260506141533 59 360 4.0 0.0 0.00 0.00 0.00 65 1010.1
20260506140034 58 360 4.0 0.0 0.00 0.00 0.00 67 1010.1
20260506134532 57 360 2.0 0.0 0.00 0.00 0.00 69 1010.1
20260506133042 58 360 3.0 0.0 0.00 0.00 0.00 68 1009.9
20260506131532 57 360 4.0 0.0 0.00 0.00 0.00 68 1009.8
20260506130028 58 360 3.0 0.0 0.00 0.00 0.00 68 1009.9
20260506124524 58 360 5.0 0.0 0.00 0.00 0.00 67 1009.7
20260506123023 58 317 3.0 0.0 0.00 0.00 0.00 66 1009.8
20260506121521 58 360 1.0 0.0 0.00 0.00 0.00 66 1009.7
20260506120034 58 360 4.0 0.0 0.00 0.00 0.00 65 1009.6
20260506114519 58 360 4.0 0.0 0.00 0.00 0.00 66 1009.6
20260506113018 58 360 2.0 0.0 0.00 0.00 0.00 65 1009.5
20260506111516 59 360 3.0 0.0 0.00 0.00 0.00 64 1009.4
20260506110015 59 360 4.0 0.0 0.00 0.00 0.00 64 1009.3
20260506104513 59 360 3.0 0.0 0.00 0.00 0.00 63 1009.2
20260506103011 59 360 4.0 0.0 0.00 0.00 0.00 63 1009.0
20260506101509 60 360 3.0 0.0 0.00 0.00 0.00 61 1008.9
20260506100007 60 360 4.0 0.0 0.00 0.00 0.00 60 1008.9
20260506094506 61 340 4.0 0.0 0.00 0.00 0.00 59 1008.9
20260506093003 61 360 5.0 0.0 0.00 0.00 0.00 59 1008.7
20260506091501 61 360 5.0 0.0 0.00 0.00 0.00 60 1008.8
20260506084603 61 360 5.0 0.0 0.00 0.00 0.00 60 1008.6
20260506083059 61 360 3.0 0.0 0.00 0.00 0.00 59 1008.6
20260506081558 61 360 3.0 0.0 0.00 0.00 0.00 59 1008.7
20260506073051 63 360 4.0 0.0 0.00 0.00 0.00 58 1008.5
20260506071546 63 360 5.0 0.0 0.00 0.00 0.00 58 1008.3
20260506061546 63 344 6.0 0.0 0.00 0.00 0.00 60 1008.1
20260506044541 67 360 6.0 0.0 0.00 0.00 0.00 54 1007.6
20260506043040 68 360 5.0 0.0 0.00 0.00 0.00 53 1007.5
20260506041540 69 360 4.0 0.0 0.00 0.00 0.00 52 1007.3
20260506040041 69 360 4.0 0.0 0.00 0.00 0.00 51 1007.1
20260506034539 71 360 3.0 0.0 0.00 0.00 0.00 47 1006.9
20260506033041 73 360 4.0 0.0 0.00 0.00 0.00 42 1006.6
20260506031539 75 360 5.0 0.0 0.00 0.00 0.00 39 1006.5
20260506030038 76 360 7.0 0.0 0.00 0.00 0.00 37 1006.2
20260506024538 77 360 6.0 0.0 0.00 0.00 0.00 34 1006.1
20260506023048 78 360 6.0 0.0 0.00 0.00 0.00 33 1006.1
20260506021537 79 360 7.0 0.0 0.00 0.00 0.00 32 1006.0
20260506020036 80 360 5.0 0.0 0.00 0.00 0.00 32 1006.1
20260506014538 81 360 8.0 0.0 0.00 0.00 0.00 31 1005.9
20260506013035 82 360 7.0 0.0 0.00 0.00 0.00 32 1005.9
20260506011534 82 360 6.0 0.0 0.00 0.00 0.00 30 1005.9
20260506010045 84 360 5.0 0.0 0.00 0.00 0.00 29 1005.9
20260506004532 85 360 3.0 0.0 0.00 0.00 0.00 30 1005.8
20260506003032 85 360 2.0 0.0 0.00 0.00 0.00 29 1005.9
20260506001529 83 360 4.0 0.0 0.00 0.00 0.00 33 1005.9
20260506000027 84 360 3.0 0.0 0.00 0.00 0.00 32 1006.0
20260505234541 82 360 5.0 0.0 0.00 0.00 0.00 34 1006.1
20260505233035 83 360 4.0 0.0 0.00 0.00 0.00 33 1006.2